FW9915 Weather Reports


Display with metric or nautical units.
time (UTC)temp
F
wind
direction
speed
MPH
gust
MPH
rain 1hr
in
rain 24hr
in
rain mn
in
humidity
%
barometer
mb
20260509203036 56 0.0 0.0 0.02 0.02 0.02 96 1014.4
20260509202024 57 0.0 0.0 0.00 0.00 0.00 95 1014.4
20260509201024 57 0.0 0.0 0.00 0.00 0.00 93 1014.4
20260509200044 57 0.0 0.0 0.00 0.00 0.00 91 1014.3
20260509195024 57 0.0 0.0 0.00 0.00 0.00 91 1014.4
20260509194024 57 0.0 0.0 0.00 0.00 0.00 91 1014.4
20260509193044 57 113 0.0 2.0 0.00 0.00 0.00 91 1014.4
20260509192048 57 113 1.0 2.0 0.00 0.00 0.00 91 1014.3
20260509191024 57 0.0 0.0 0.00 0.00 0.00 91 1014.3
20260509190036 57 113 2.0 2.0 0.00 0.00 0.00 91 1014.3
20260509185048 57 101 2.0 4.0 0.00 0.00 0.00 91 1014.3
20260509184044 57 113 2.0 4.0 0.00 0.00 0.00 92 1014.2
20260509183024 57 113 2.0 4.0 0.00 0.00 0.00 92 1014.2
20260509182024 57 107 2.0 4.0 0.00 0.00 0.00 93 1014.2
20260509181024 57 113 0.0 2.0 0.00 0.00 0.00 94 1014.1
20260509180024 57 113 0.0 2.0 0.00 0.00 0.00 94 1014.0
20260509175024 57 113 1.0 2.0 0.00 0.00 0.00 94 1013.9
20260509174024 56 113 1.0 2.0 0.00 0.00 0.00 95 1013.8
20260509173024 56 113 2.0 4.0 0.00 0.00 0.00 96 1013.8
20260509172024 56 113 1.0 2.0 0.00 0.00 0.00 96 1013.7
20260509171024 56 113 2.0 7.0 0.00 0.00 0.00 96 1013.6
20260509170044 56 127 3.0 4.0 0.00 0.00 0.00 96 1013.7
20260509165048 56 115 3.0 7.0 0.00 0.00 0.00 96 1013.7
20260509164036 56 116 4.0 7.0 0.00 0.00 0.00 96 1013.6
20260509163036 56 113 4.0 4.0 0.00 0.00 0.00 96 1013.6
20260509162044 56 115 4.0 7.0 0.00 0.00 0.00 95 1013.5
20260509161044 56 127 3.0 4.0 0.00 0.00 0.00 96 1013.5
20260509160024 56 113 2.0 4.0 0.00 0.00 0.00 96 1013.5
20260509155024 57 119 2.0 7.0 0.00 0.00 0.00 96 1013.4
20260509154048 57 128 3.0 7.0 0.00 0.00 0.00 96 1013.3
20260509153036 57 138 4.0 7.0 0.00 0.00 0.00 96 1013.4
20260509152024 57 125 4.0 7.0 0.00 0.00 0.00 96 1013.4
20260509151024 57 127 4.0 7.0 0.00 0.00 0.00 96 1013.4
20260509150024 57 139 4.0 9.0 0.00 0.00 0.00 96 1013.5
20260509145036 57 144 5.0 9.0 0.00 0.00 0.00 96 1013.5
20260509144024 57 143 4.0 7.0 0.00 0.00 0.00 96 1013.5
20260509143044 57 130 4.0 7.0 0.00 0.00 0.00 97 1013.6
20260509142024 57 128 4.0 7.0 0.00 0.00 0.00 97 1013.6
20260509141024 57 120 5.0 9.0 0.00 0.00 0.00 97 1013.5
20260509140024 57 124 5.0 9.0 0.00 0.00 0.00 96 1013.6
20260509135024 57 127 5.0 9.0 0.00 0.00 0.00 96 1013.5
20260509134048 57 115 5.0 9.0 0.00 0.00 0.00 96 1013.6
20260509133024 57 116 6.0 9.0 0.00 0.00 0.00 95 1013.6
20260509132024 58 110 5.0 7.0 0.00 0.00 0.00 94 1013.6
20260509131044 58 119 4.0 9.0 0.00 0.00 0.00 93 1013.6
20260509130036 58 120 6.0 9.0 0.00 0.00 0.00 92 1013.6
20260509125024 59 121 4.0 7.0 0.00 0.00 0.00 90 1013.7
20260509124024 59 118 4.0 7.0 0.00 0.00 0.00 92 1013.6
20260509123024 59 110 6.0 9.0 0.00 0.00 0.00 91 1013.7
20260509122024 59 116 6.0 9.0 0.00 0.00 0.00 90 1013.8
20260509121024 59 131 6.0 9.0 0.00 0.00 0.00 90 1014.0
20260509120024 59 127 6.0 9.0 0.00 0.00 0.00 91 1014.1
20260509115024 59 124 5.0 11.0 0.00 0.00 0.00 90 1014.3
20260509114024 60 135 6.0 11.0 0.00 0.00 0.00 87 1014.3
20260509113024 60 117 6.0 9.0 0.00 0.00 0.00 87 1014.2
20260509112024 60 137 4.0 7.0 0.00 0.00 0.00 85 1014.2
20260509111024 61 119 5.0 7.0 0.00 0.00 0.00 84 1014.1
20260509110024 60 116 5.0 7.0 0.00 0.00 0.00 85 1014.1
20260509105044 62 144 4.0 9.0 0.00 0.00 0.00 81 1014.2
20260509104036 63 184 5.0 9.0 0.00 0.00 0.00 77 1014.1
20260509103024 64 184 5.0 9.0 0.00 0.00 0.00 74 1014.0
20260509102044 63 162 4.0 7.0 0.00 0.00 0.00 76 1014.1
20260509101024 62 130 3.0 4.0 0.00 0.00 0.00 81 1014.1
20260509100024 61 121 4.0 7.0 0.00 0.00 0.00 84 1014.3
20260509095024 60 118 4.0 7.0 0.00 0.00 0.00 86 1014.3
20260509094024 60 119 4.0 7.0 0.00 0.00 0.00 86 1014.3
20260509093024 59 121 5.0 7.0 0.00 0.00 0.00 89 1014.4
20260509092024 59 122 4.0 7.0 0.00 0.00 0.00 89 1014.5
20260509091024 59 126 2.0 4.0 0.00 0.00 0.00 89 1014.6
20260509090024 59 133 2.0 7.0 0.00 0.00 0.00 89 1014.8
20260509085024 58 137 1.0 4.0 0.00 0.00 0.00 89 1014.8
20260509084024 58 201 2.0 4.0 0.00 0.00 0.00 89 1014.8
20260509083024 58 146 1.0 4.0 0.00 0.00 0.00 91 1014.8
20260509082024 58 139 2.0 4.0 0.00 0.00 0.00 91 1014.8
20260509081108 58 130 3.0 4.0 0.00 0.00 0.00 91 1014.9
20260509080024 58 131 4.0 7.0 0.00 0.00 0.00 91 1014.8
20260509075024 58 129 4.0 7.0 0.00 0.00 0.00 90 1014.8
20260509074024 58 122 5.0 7.0 0.00 0.00 0.00 91 1014.7
20260509073024 58 129 4.0 7.0 0.00 0.00 0.00 91 1014.7
20260509072024 58 121 4.0 7.0 0.00 0.00 0.00 90 1014.7
20260509071104 58 125 4.0 7.0 0.00 0.00 0.00 90 1014.7
20260509070024 58 127 3.0 4.0 0.00 0.00 0.00 90 1014.8
20260509065036 58 123 4.0 7.0 0.00 0.00 0.00 90 1014.8
20260509064024 58 123 4.0 7.0 0.00 0.00 0.00 90 1014.8
20260509063024 58 123 3.0 4.0 0.00 0.00 0.00 91 1014.9
20260509062024 58 122 3.0 7.0 0.00 0.00 0.00 91 1014.9
20260509061036 58 119 2.0 4.0 0.00 0.00 0.00 91 1014.9
20260509060024 57 123 3.0 7.0 0.00 0.00 0.00 91 1015.0
20260509055036 58 156 0.0 2.0 0.00 0.00 0.00 90 1015.0
20260509054044 58 146 3.0 4.0 0.00 0.00 0.00 90 1014.9
20260509053024 58 126 2.0 4.0 0.00 0.00 0.00 89 1014.9
20260509052024 57 151 1.0 4.0 0.00 0.00 0.00 88 1014.9
20260509051024 57 135 1.0 4.0 0.00 0.00 0.00 92 1014.9
20260509050024 57 113 2.0 4.0 0.00 0.00 0.00 95 1014.9
20260509045024 57 120 3.0 7.0 0.00 0.00 0.00 96 1014.9
20260509044024 56 114 4.0 7.0 0.00 0.00 0.00 95 1014.8
20260509043112 56 141 1.0 2.0 0.00 0.00 0.00 96 1014.7
20260509042056 56 135 0.0 2.0 0.00 0.00 0.00 98 1014.6
20260509041024 55 135 2.0 4.0 0.00 0.00 0.00 99 1014.6
20260509040104 55 158 1.0 4.0 0.00 0.00 0.00 99 1014.7
20260509035044 55 155 1.0 4.0 0.00 0.00 0.00 99 1014.7
20260509034024 55 158 0.0 2.0 0.00 0.00 0.00 99 1014.7
20260509033024 55 142 1.0 4.0 0.00 0.00 0.00 99 1014.6
20260509032024 55 176 0.0 4.0 0.00 0.00 0.00 99 1014.5
20260509031024 54 0.0 0.0 0.00 0.00 0.00 99 1014.5
20260509030024 54 0.0 0.0 0.00 0.00 0.00 99 1014.4
20260509025056 54 0.0 0.0 0.00 0.00 0.00 99 1014.4
20260509024024 54 0.0 0.0 0.00 0.00 0.00 99 1014.4
20260509023044 54 0.0 0.0 0.00 0.00 0.00 99 1014.4
20260509022044 54 0.0 0.0 0.00 0.00 0.00 99 1014.3
20260509021024 54 0.0 0.0 0.00 0.00 0.00 99 1014.4
20260509020024 55 203 0.0 2.0 0.00 0.00 0.00 99 1014.4
20260509015024 55 203 1.0 2.0 0.00 0.00 0.00 99 1014.4
20260509014025 55 192 2.0 4.0 0.00 0.00 0.00 99 1014.4
20260509013044 54 214 0.0 2.0 0.00 0.00 0.00 99 1014.3
20260509012026 54 225 0.0 2.0 0.00 0.00 0.00 99 1014.4
20260509011024 54 0.0 0.0 0.00 0.00 0.00 99 1014.5
20260509010024 54 0.0 0.0 0.00 0.00 0.00 99 1014.5
20260509005024 54 203 0.0 2.0 0.00 0.00 0.00 99 1014.7
20260509004044 54 0.0 0.0 0.00 0.00 0.00 99 1014.7
20260509003024 54 0.0 0.0 0.00 0.00 0.00 99 1014.7
20260509002024 54 203 0.0 2.0 0.00 0.00 0.00 99 1014.7
20260509001024 54 180 0.0 2.0 0.00 0.00 0.00 99 1014.9
20260509000024 54 165 1.0 2.0 0.00 0.00 0.00 99 1015.0
20260508235025 54 203 1.0 2.0 0.00 0.00 0.00 99 1015.0
20260508234024 54 180 0.0 2.0 0.00 0.00 0.00 99 1015.1
20260508233024 54 160 0.0 4.0 0.00 0.00 0.00 99 1015.2
20260508232044 54 144 2.0 7.0 0.00 0.00 0.00 99 1015.3
20260508231024 54 199 1.0 4.0 0.00 0.00 0.00 99 1015.2
20260508230024 54 180 1.0 4.0 0.00 0.00 0.00 99 1015.2
20260508225044 54 248 1.0 2.0 0.00 0.00 0.00 99 1015.2
20260508224044 54 248 2.0 4.0 0.00 0.00 0.00 99 1015.2
20260508223024 54 249 3.0 7.0 0.00 0.00 0.00 99 1015.2
20260508222024 54 247 4.0 7.0 0.00 0.00 0.00 99 1015.3
20260508221024 54 248 2.0 7.0 0.00 0.00 0.00 99 1015.3
20260508220036 53 248 2.0 4.0 0.00 0.00 0.00 99 1015.4
20260508215024 53 248 2.0 4.0 0.00 0.00 0.00 99 1015.5
20260508214036 53 248 1.0 2.0 0.00 0.00 0.00 99 1015.5
20260508213024 53 248 0.0 2.0 0.00 0.00 0.00 99 1015.5
20260508212044 53 233 1.0 4.0 0.00 0.00 0.00 99 1015.4
20260508211024 53 248 1.0 4.0 0.00 0.00 0.00 99 1015.5
20260508210024 53 225 1.0 4.0 0.00 0.00 0.00 99 1015.6
20260508205024 53 208 1.0 2.0 0.00 0.00 0.00 99 1015.5
20260508204044 53 178 1.0 2.0 0.00 0.00 0.00 99 1015.6